Tiempo cada hora Elx

Hoy, 20 Octubre, Martes

Tiempo Temperatura Precipitaciones Viento Presión Humedad
00:00 +15°C° 0 mm 1 mps 755 mmHg 83%
01:00 +15°C° 0 mm 1 mps 755 mmHg 81%
02:00 +15°C° 0 mm 1 mps 755 mmHg 78%
03:00 +15°C° 0 mm 1 mps 755 mmHg 76%
04:00 +15°C° 0 mm 1 mps 754 mmHg 72%
05:00 +15°C° 0 mm 2 mps 754 mmHg 67%
06:00 +15°C° 0 mm 2 mps 754 mmHg 63%
07:00 +17°C° 0 mm 2 mps 754 mmHg 59%
08:00 +19°C° 0 mm 2 mps 754 mmHg 54%
09:00 +23°C° 0 mm 2 mps 754 mmHg 50%
10:00 +24°C° 0 mm 3 mps 754 mmHg 49%
11:00 +25°C° 0 mm 4 mps 754 mmHg 49%
12:00 +26°C° 0 mm 4 mps 753 mmHg 48%
13:00 +26°C° 0 mm 4 mps 753 mmHg 51%
14:00 +26°C° 0 mm 4 mps 752 mmHg 55%
15:00 +25°C° 0 mm 4 mps 752 mmHg 58%
16:00 +24°C° 0 mm 3 mps 751 mmHg 63%
17:00 +22°C° 0 mm 3 mps 751 mmHg 68%
18:00 +20°C° 0 mm 2 mps 750 mmHg 73%
19:00 +20°C° 0 mm 3 mps 750 mmHg 69%
20:00 +20°C° 0 mm 3 mps 750 mmHg 65%
21:00 +20°C° 0 mm 3 mps 750 mmHg 62%
22:00 +19°C° 0 mm 3 mps 750 mmHg 63%
23:00 +19°C° 0 mm 2 mps 750 mmHg 64%

Mañana, 21 Octubre, Miércoles

Tiempo Temperatura Precipitaciones Viento Presión Humedad
00:00 +19°C° 0 mm 2 mps 750 mmHg 65%
01:00 +19°C° 0 mm 2 mps 750 mmHg 65%
02:00 +19°C° 0 mm 2 mps 749 mmHg 66%
03:00 +19°C° 0 mm 2 mps 749 mmHg 66%
04:00 +20°C° 0 mm 1 mps 750 mmHg 64%
05:00 +20°C° 0 mm 1 mps 750 mmHg 62%
06:00 +20°C° 0 mm 1 mps 750 mmHg 59%
07:00 +22°C° 0 mm 1 mps 751 mmHg 56%
08:00 +23°C° 0 mm 1 mps 751 mmHg 53%
09:00 +25°C° 0 mm 2 mps 752 mmHg 50%
10:00 +26°C° 0 mm 3 mps 752 mmHg 47%
11:00 +28°C° 0 mm 5 mps 752 mmHg 44%
12:00 +29°C° 0 mm 6 mps 752 mmHg 41%
13:00 +29°C° 0 mm 6 mps 752 mmHg 43%
14:00 +28°C° 0 mm 6 mps 751 mmHg 45%
15:00 +28°C° 0 mm 5 mps 751 mmHg 47%
16:00 +26°C° 0 mm 4 mps 751 mmHg 55%
17:00 +24°C° 0 mm 3 mps 751 mmHg 64%
18:00 +21°C° 0 mm 2 mps 752 mmHg 72%
19:00 +22°C° 0 mm 1 mps 752 mmHg 73%
20:00 +21°C° 0 mm 1 mps 752 mmHg 74%
21:00 +21°C° 0 mm 1 mps 752 mmHg 75%
22:00 +21°C° 0 mm 1 mps 752 mmHg 75%
23:00 +20°C° 0 mm 1 mps 752 mmHg 75%

Pasado mañana, 22 Octubre, Jueves

Tiempo Temperatura Precipitaciones Viento Presión Humedad
00:00 +18°C° 0 mm 0 mps 752 mmHg 74%
01:00 +20°C° 0 mm 1 mps 752 mmHg 73%
02:00 +20°C° 0 mm 1 mps 752 mmHg 72%
03:00 +20°C° 0 mm 1 mps 752 mmHg 70%
04:00 +20°C° 0 mm 1 mps 752 mmHg 72%
05:00 +19°C° 0 mm 1 mps 753 mmHg 74%
06:00 +19°C° 0 mm 1 mps 753 mmHg 76%
07:00 +20°C° 0 mm 1 mps 753 mmHg 70%
08:00 +22°C° 0 mm 1 mps 754 mmHg 64%
09:00 +23°C° 0 mm 1 mps 754 mmHg 58%
10:00 +23°C° 0 mm 1 mps 754 mmHg 59%
11:00 +24°C° 0 mm 1 mps 754 mmHg 59%
12:00 +24°C° 0 mm 1 mps 754 mmHg 60%
13:00 +23°C° 0.1 mm 1 mps 754 mmHg 65%
14:00 +22°C° 0.1 mm 1 mps 754 mmHg 70%
15:00 +21°C° 0.1 mm 1 mps 754 mmHg 74%
16:00 +21°C° 0.1 mm 1 mps 754 mmHg 75%
17:00 +20°C° 0.1 mm 2 mps 755 mmHg 76%
18:00 +19°C° 0.1 mm 2 mps 755 mmHg 77%
19:00 +19°C° 0.3 mm 2 mps 756 mmHg 80%
20:00 +19°C° 0.3 mm 2 mps 756 mmHg 82%
21:00 +18°C° 0.3 mm 2 mps 756 mmHg 84%
22:00 +18°C° 0.2 mm 2 mps 757 mmHg 84%
23:00 +18°C° 0.2 mm 2 mps 757 mmHg 84%

23 Octubre, Viernes

Tiempo Temperatura Precipitaciones Viento Presión Humedad
00:00 +18°C° 0.2 mm 2 mps 757 mmHg 83%
01:00 +18°C° 0 mm 2 mps 757 mmHg 83%
02:00 +18°C° 0 mm 2 mps 757 mmHg 83%
03:00 +18°C° 0 mm 2 mps 757 mmHg 82%
04:00 +18°C° 0 mm 2 mps 758 mmHg 82%
05:00 +18°C° 0 mm 2 mps 758 mmHg 82%
06:00 +18°C° 0 mm 2 mps 758 mmHg 82%
07:00 +19°C° 0 mm 2 mps 758 mmHg 74%
08:00 +21°C° 0 mm 3 mps 759 mmHg 66%
09:00 +22°C° 0 mm 3 mps 759 mmHg 58%
10:00 +24°C° 0 mm 3 mps 759 mmHg 53%
11:00 +25°C° 0 mm 3 mps 759 mmHg 47%
12:00 +26°C° 0 mm 3 mps 759 mmHg 41%
13:00 +26°C° 0 mm 3 mps 759 mmHg 42%
14:00 +26°C° 0 mm 4 mps 758 mmHg 42%
15:00 +26°C° 0 mm 4 mps 758 mmHg 43%
16:00 +25°C° 0.3 mm 4 mps 759 mmHg 50%
17:00 +22°C° 0.3 mm 3 mps 759 mmHg 57%
18:00 +21°C° 0.3 mm 3 mps 759 mmHg 65%
19:00 +21°C° 0.3 mm 2 mps 759 mmHg 64%
20:00 +21°C° 0.3 mm 2 mps 760 mmHg 64%
21:00 +20°C° 0.3 mm 2 mps 760 mmHg 64%
22:00 +20°C° 0.1 mm 2 mps 760 mmHg 63%
23:00 +20°C° 0.1 mm 3 mps 760 mmHg 63%

24 Octubre, Sábado

Tiempo Temperatura Precipitaciones Viento Presión Humedad
00:00 +20°C° 0.1 mm 3 mps 760 mmHg 63%
01:00 +19°C° 0.4 mm 3 mps 759 mmHg 64%
02:00 +19°C° 0.4 mm 3 mps 759 mmHg 66%
03:00 +18°C° 0.4 mm 3 mps 759 mmHg 67%
04:00 +18°C° 0.7 mm 2 mps 759 mmHg 67%
05:00 +17°C° 0.7 mm 2 mps 759 mmHg 67%
06:00 +17°C° 0.7 mm 2 mps 759 mmHg 67%
07:00 +18°C° 0.3 mm 2 mps 760 mmHg 59%
08:00 +20°C° 0.3 mm 2 mps 760 mmHg 52%
09:00 +22°C° 0.3 mm 1 mps 760 mmHg 44%
10:00 +23°C° 0 mm 1 mps 760 mmHg 42%
11:00 +24°C° 0 mm 1 mps 760 mmHg 40%
12:00 +25°C° 0 mm 1 mps 759 mmHg 37%
13:00 +25°C° 0 mm 2 mps 759 mmHg 38%
14:00 +25°C° 0 mm 2 mps 759 mmHg 39%
15:00 +25°C° 0 mm 3 mps 758 mmHg 41%
16:00 +23°C° 0 mm 2 mps 758 mmHg 51%
17:00 +21°C° 0 mm 2 mps 758 mmHg 61%
18:00 +19°C° 0 mm 2 mps 758 mmHg 71%
19:00 +20°C° 0 mm 1 mps 758 mmHg 74%
20:00 +19°C° 0 mm 1 mps 758 mmHg 77%
21:00 +19°C° 0 mm 1 mps 758 mmHg 80%
22:00 +18°C° 0 mm 1 mps 758 mmHg 81%
23:00 +16°C° 0 mm 0 mps 758 mmHg 82%

25 Octubre, Domingo

Tiempo Temperatura Precipitaciones Viento Presión Humedad
00:00 +15°C° 0 mm 0 mps 758 mmHg 82%
01:00 +16°C° 0 mm 1 mps 757 mmHg 82%
02:00 +16°C° 0 mm 1 mps 757 mmHg 82%
03:00 +15°C° 0 mm 1 mps 756 mmHg 82%
04:00 +15°C° 0 mm 1 mps 756 mmHg 82%
05:00 +15°C° 0 mm 1 mps 756 mmHg 83%
06:00 +13°C° 0 mm 0 mps 756 mmHg 83%
07:00 +16°C° 0 mm 1 mps 756 mmHg 73%
08:00 +19°C° 0 mm 1 mps 756 mmHg 63%
09:00 +21°C° 0 mm 1 mps 756 mmHg 53%
10:00 +21°C° 0 mm 2 mps 755 mmHg 49%
11:00 +24°C° 0 mm 3 mps 755 mmHg 45%
12:00 +25°C° 0 mm 3 mps 755 mmHg 40%
13:00 +25°C° 0 mm 4 mps 754 mmHg 40%
14:00 +25°C° 0 mm 4 mps 754 mmHg 40%
15:00 +25°C° 0 mm 4 mps 753 mmHg 39%
16:00 +22°C° 0 mm 4 mps 753 mmHg 47%
17:00 +20°C° 0 mm 3 mps 753 mmHg 55%
18:00 +18°C° 0 mm 2 mps 753 mmHg 64%
19:00 +18°C° 0 mm 3 mps 753 mmHg 59%
20:00 +18°C° 0 mm 3 mps 754 mmHg 55%
21:00 +18°C° 0 mm 3 mps 754 mmHg 50%
22:00 +18°C° 0 mm 4 mps 754 mmHg 51%
23:00 +17°C° 0 mm 5 mps 754 mmHg 52%

26 Octubre, Lunes

Tiempo Temperatura Precipitaciones Viento Presión Humedad
00:00 +16°C° 0 mm 6 mps 754 mmHg 53%
01:00 +16°C° 0 mm 7 mps 755 mmHg 52%
02:00 +15°C° 0 mm 9 mps 755 mmHg 50%
03:00 +13°C° 0 mm 10 mps 755 mmHg 49%
04:00 +12°C° 0 mm 10 mps 755 mmHg 52%
05:00 +12°C° 0 mm 10 mps 756 mmHg 54%
06:00 +11°C° 0 mm 10 mps 756 mmHg 57%
07:00 +12°C° 0 mm 11 mps 756 mmHg 53%
08:00 +13°C° 0 mm 11 mps 757 mmHg 49%
09:00 +16°C° 0 mm 11 mps 757 mmHg 45%
10:00 +17°C° 0 mm 11 mps 757 mmHg 40%
11:00 +18°C° 0 mm 10 mps 757 mmHg 36%
12:00 +19°C° 0 mm 10 mps 757 mmHg 31%
13:00 +19°C° 0 mm 10 mps 756 mmHg 30%
14:00 +19°C° 0 mm 9 mps 756 mmHg 29%
15:00 +21°C° 0 mm 9 mps 756 mmHg 28%
16:00 +20°C° 0 mm 8 mps 756 mmHg 31%
17:00 +17°C° 0 mm 8 mps 757 mmHg 33%
18:00 +16°C° 0 mm 7 mps 757 mmHg 35%
19:00 +16°C° 0 mm 6 mps 757 mmHg 37%
20:00 +15°C° 0 mm 6 mps 757 mmHg 40%
21:00 +15°C° 0 mm 5 mps 758 mmHg 42%
22:00 +14°C° 0 mm 5 mps 758 mmHg 44%
23:00 +14°C° 0 mm 5 mps 758 mmHg 45%
Mostrar más

Necesitamos Su Consentimiento

Meteoprog y nuestros Proveedores de Servicios pueden almacenar y acceder a sus datos personales como cookies, identificadores de dispositivo u otras tecnologías similares de su dispositivo y procesar dichos datos para personalizar contenido y anuncios, además de ofrecer funciones de redes sociales y analizar el tráfico.

  • Almacenar y/o acceder a información en su dispositivo

    Se puede almacenar o acceder a cookies, identificadores de dispositivo u otra información de su dispositivo para los fines anteriormente indicados.

  • Anuncios y contenido personalizados, medición de anuncios y contenido, percepciones del público, y desarrollo de productos

    Los anuncios y el contenido pueden personalizarse en base a su perfil. Se pueden añadir más datos para personalizar mejor los anuncios y contenidos. Se puede medir el rendimiento de los anuncios y contenidos. Se puede obtener la percepción sobre el público que ha visto los anuncios y contenidos. Dichos datos pueden usarse para desarrollar o mejorar la experiencia del usuario, sistemas y software.

Al hacer clic en ‘Estoy De Acuerdo’ usted permitirá el uso de las cookies, identificadores de dispositivo, balizas web u otras tecnologías similares indicadas. Su configuración puede cambiarse desde el navegador de su dispositivo.

Para ciertos fines, los intereses legítimos pueden ser considerados por encima del consentimiento. Puede leer más sobre ello en nuestra Política de Privacidad y Cookies.